Volver al catálogo

STARLINK-1413

ActivoComunicacionesVLEO
NORAD 45689·PAYLOAD·🇺🇸 United States

Lanzado Jun 4, 2020 desde Cape Canaveral Space Force Station

Loading…

Próximos Pases (próximas 24 horas)

TLE

ActualizadoSource: CelesTrak SupGP

Época: Sep 14, 2026, 20:14 UTC

1 45689C 20035AJ  26257.84354167  .00082971  00000+0  18421-2 0  2573
2 45689  53.1524 243.6608 0002650  77.1244 311.7334 15.43081187    12

Sigue STARLINK-1413 en tiempo real con AllMySat

Download on the App Store